Spokane, WA

9:22 AM PDT on September 24, 2017 (GMT -0700)
Spokane International

Weather History for KGEG - December, 2013

Change the Weather History Date:

Sunday, December 8, 2013

  Actual Average Record
Temperature  
Mean Temperature 7 °F 28 °F  
Max Temperature 15 °F 33 °F 56 °F (1938)
Min Temperature -2 °F 23 °F -11 °F (1972)
Degree Days  
Heating Degree Days 58 37  
Month to date heating degree days 365 289  
Since 1 July heating degree days 2020 1956  
Cooling Degree Days 0 0  
Month to date cooling degree days 0 0  
Year to date cooling degree days 709 450  
Moisture  
Dew Point -4 °F    
Average Humidity 62    
Maximum Humidity 79    
Minimum Humidity 44    
Precipitation  
Precipitation T in 0.08 in 0.90 in (1971)
Month to date precipitation 0.22 0.67  
Year to date precipitation 10.90 14.93  
Snow  
Snow T in 0.40 in 7.80 in (1971)
Month to date snowfall T 3.3  
Since 1 July snowfall 3.1 10.8  
Snow Depth 0.00 in    
Sea Level Pressure  
Sea Level Pressure 30.47 in    
Wind  
Wind Speed 5 mph (South)    
Max Wind Speed 10 mph    
Max Gust Speed 13 mph    
Visibility 9 miles    
Events Snow    
T = Trace of Precipitation, MM = Missing Value Source: NWS Daily Summary

Daily Weather History Graph

Daily Weather History Graph

Search for Another Location

Airport or City:

Trip Planner

Search our weather history database for the weather conditions in past years. The results will help you decide how hot, cold, wet, or windy it might be!

Date:

Astronomy

Dec. 08, 2013 Rise Set
Actual Time 7:25 AM PST 3:58 PM PST
Civil Twilight 6:50 AM PST 4:34 PM PST
Nautical Twilight 6:10 AM PST 5:13 PM PST
Astronomical Twilight 5:33 AM PST 5:50 PM PST
Moon 11:28 AM PST (12/8) 11:16 PM PST (12/8)
Length of Visible Light 9h 44m
Length of Day
8h 32m
Waxing Crescent, 41% of the Moon is Illuminated
Dec 8
Waxing Crescent
Dec 9
First Quarter
Dec 17
Full
Dec 25
Last Quarter
Jan 1
New

Hourly Weather History & Observations

Time (PST) Temp. Windchill Dew Point Humidity Pressure Visibility Wind Dir Wind Speed Gust Speed Precip Events Conditions
12:53 AM -0.9 °F -15.3 °F -7.1 °F 75% 30.40 in 10.0 mi SSE 8.1 mph - N/A   Clear
1:53 AM -0.9 °F -15.3 °F -7.1 °F 75% 30.40 in 10.0 mi SSE 8.1 mph - N/A   Clear
2:53 AM -0.9 °F -15.3 °F -7.1 °F 75% 30.41 in 10.0 mi South 8.1 mph - N/A   Mostly Cloudy
3:53 AM 1.0 °F -12.9 °F -6.0 °F 72% 30.41 in 10.0 mi South 8.1 mph - N/A   Overcast
4:53 AM 1.9 °F -7.6 °F -6.0 °F 69% 30.43 in 10.0 mi South 4.6 mph - N/A   Overcast
5:53 AM 3.0 °F -6.4 °F -4.0 °F 73% 30.43 in 6.0 mi South 4.6 mph - 0.00 in Snow Light Snow
6:53 AM 3.9 °F -3.4 °F -2.9 °F 73% 30.44 in 3.0 mi SSE 3.5 mph - 0.00 in Snow Light Snow
7:11 AM 3.2 °F -4.2 °F -2.2 °F 78% 30.28 in 2.5 mi SE 3.5 mph - 0.00 in Snow Light Snow
7:18 AM 3.2 °F -6.2 °F -2.2 °F 78% 30.28 in 4.0 mi South 4.6 mph - 0.00 in Snow Light Snow
7:53 AM 3.9 °F -5.3 °F -2.0 °F 76% 30.46 in 9.0 mi South 4.6 mph - 0.00 in Snow Light Snow
8:53 AM 6.1 °F -0.9 °F -2.0 °F 69% 30.47 in 10.0 mi South 3.5 mph - 0.00 in   Mostly Cloudy
9:53 AM 7.0 °F -4.5 °F -2.9 °F 64% 30.49 in 10.0 mi SW 6.9 mph - N/A   Mostly Cloudy
10:53 AM 9.0 °F -3.2 °F -2.9 °F 59% 30.50 in 10.0 mi SW 8.1 mph - N/A   Mostly Cloudy
11:53 AM 10.9 °F 1.4 °F -2.9 °F 54% 30.48 in 10.0 mi SSW 5.8 mph - N/A   Mostly Cloudy
12:53 PM 12.0 °F - -4.0 °F 49% 30.48 in 10.0 mi Calm Calm - N/A   Scattered Clouds
1:53 PM 14.0 °F - -4.0 °F 45% 30.48 in 10.0 mi Calm Calm - N/A   Scattered Clouds
2:53 PM 14.0 °F - -5.1 °F 43% 30.49 in 10.0 mi Calm Calm - N/A   Scattered Clouds
3:53 PM 12.0 °F 2.7 °F -5.1 °F 46% 30.51 in 10.0 mi SW 5.8 mph - N/A   Scattered Clouds
4:53 PM 10.0 °F 1.8 °F -5.1 °F 51% 30.53 in 10.0 mi SW 4.6 mph - N/A   Partly Cloudy
5:53 PM 9.0 °F 0.6 °F -5.1 °F 53% 30.53 in 10.0 mi SSW 4.6 mph - N/A   Partly Cloudy
6:53 PM 9.0 °F -0.9 °F -5.1 °F 53% 30.53 in 10.0 mi South 5.8 mph - N/A   Mostly Cloudy
7:53 PM 9.0 °F -0.9 °F -2.9 °F 59% 30.56 in 10.0 mi South 5.8 mph - N/A   Mostly Cloudy
8:53 PM 8.1 °F -3.2 °F -2.0 °F 64% 30.55 in 10.0 mi South 6.9 mph - N/A   Mostly Cloudy
9:53 PM 9.0 °F -0.9 °F -2.0 °F 61% 30.56 in 10.0 mi South 5.8 mph - N/A   Overcast
10:53 PM 9.0 °F -0.9 °F -2.0 °F 61% 30.55 in 10.0 mi South 5.8 mph - N/A   Overcast
11:53 PM 9.0 °F -0.9 °F -0.9 °F 64% 30.55 in 10.0 mi South 5.8 mph - 0.00 in Snow Light Snow